Location: Allos
(44.2333°N, 6.6333°E)
Time: 18:08:05
(UTC+00:00)

Cosmos 2228 Rocket - Pass Details

Date: 23 April 2021
Orbit: 617 x 652 km, 82.5° (Epoch: 05 May)

Event Time Altitude Azimuth Distance (km) Brightness Sun altitude
Exits shadow 00:32:50 23° 335° (NNW) 1,322 5.1 -31.6°
Drops below altitude 10° 00:34:50 10° 352° (N) 1,992 6.4 -31.4°
Sets 00:37:13 0° 1° (N) 2,904 7.5 -31.3°
